Location: ???????
(55.0144°N, 38.6414°E)
Time: 13:23:37
(UTC+00:00)

Daily predictions for brighter satellites

Satellite Brightness Start Highest point End
(mag) Time Altitude Azimuth Time Altitude Azimuth Time Altitude Azimuth
Cosmos 2061 Rocket 4.2 16:25:10 10° S 16:31:26 60° E 16:37:46 10° NNE
BREEZE-M DEB (TANK) 4.2 16:29:16 10° SW 16:31:40 32° SSE 16:36:14 10° E
Cosmos 1937 Rocket 3.9 16:28:17 10° NNW 16:33:32 71° WSW 16:38:48 10° SSE
Cosmos 1174 4.3 16:28:24 10° SW 16:33:48 84° SE 16:38:07 10° NE
USA 59 Rocket -0.2 16:30:30 10° NW 16:33:55 68° NE 16:38:26 10° ESE
COSMOS 2428 3.8 16:31:01 10° SSE 16:35:17 22° ESE 16:39:35 10° NE
Cosmos 2233 Rocket 4.0 16:29:22 10° S 16:35:21 59° E 16:41:25 10° NNE
Meteor 2-4 Rocket 4.0 16:30:36 10° NNW 16:36:35 86° WSW 16:42:30 10° S
Cosmos 1707 3.7 16:33:49 10° N 16:36:50 25° ENE 16:39:51 10° SE
Cosmos 1818 4.5 16:33:04 10° S 16:37:33 27° ESE 16:42:03 10° ENE
CSL-04 Debris 4.3 16:32:22 10° SE 16:37:44 60° ENE 16:43:09 10° NNW
Cosmos 2292 Rocket 4.1 16:33:17 10° NNW 16:37:53 59° W 16:41:27 10° S
Cosmos 1943 Rocket 3.0 16:32:54 10° NNW 16:37:59 36° NE 16:43:04 10° ESE
USA 276 3.1 16:36:03 10° SW 16:38:32 26° S 16:40:54 10° ESE
CZ-4 R/B 1.2 16:35:30 10° SSE 16:39:18 86° ENE 16:43:12 10° NNW
Cosmos 468 Rocket 4.0 16:36:20 10° SSW 16:41:27 87° WNW 16:46:39 10° NNE
Lacrosse 4 Rocket 1.5 16:39:01 10° NW 16:43:23 86° WSW 16:47:44 10° SE
ADEOS 4.1 16:39:45 10° S 16:44:56 64° WSW 16:50:08 10° NNW
Cosmos 841 Rocket 3.5 16:41:35 10° S 16:46:40 58° ESE 16:51:45 10° NNE
KORONAS-FOTON 4.2 16:43:16 10° N 16:46:48 40° ENE 16:50:18 10° SE
PAYLOAD B 4.3 16:41:15 10° SSE 16:46:52 90° ENE 16:52:32 10° NNW
Cosmos 1726 1.9 16:45:10 10° SSE 16:47:49 38° E 16:50:30 10° NNE
Cosmos 1356 Rocket 4.1 16:44:06 10° N 16:47:59 36° ENE 16:51:51 10° SE
Cosmos 1536 4.3 16:45:34 10° SE 16:48:00 16° E 16:50:26 10° NE
Tsikada Rocket 4.2 16:43:29 10° NNW 16:49:44 78° W 16:56:02 10° S
NOSS 2-1 (C) 3.2 16:46:54 10° NW 16:50:20 87° NE 16:54:53 10° SE
Cosmos 1328 Rocket 3.6 16:46:36 10° N 16:50:53 61° ENE 16:55:07 10° SSE
Cosmos 1125 Rocket 4.2 16:48:53 10° NNW 16:53:44 37° NE 16:58:18 11° ESE
Cosmos 2278 Rocket 2.5 16:48:10 10° NNW 16:53:46 56° NE 16:59:17 10° SE
SeaSat 1 3.9 16:49:58 10° NNE 16:54:37 41° NW 16:59:12 10° WSW
Terra 3.2 16:51:47 10° ESE 16:55:23 22° NE 16:58:59 10° N
Cosmos 1674 2.3 16:53:58 10° N 16:57:21 70° ENE 17:00:40 10° SSE
Meteor 1-4 Rocket 2.2 16:55:14 10° N 16:57:50 42° ENE 17:00:18 11° SE
Cosmos 540 Rocket 4.1 16:53:42 10° SW 16:58:44 60° WNW 17:03:48 10° NNE
Iridium 4 Rocket 3.0 16:55:36 10° N 16:59:57 86° W 17:04:06 10° S
CZ-4B R/B 3.2 16:54:58 10° SSE 17:00:28 88° ENE 17:05:55 10° NNW
Cosmos 1743 2.4 16:57:12 10° S 17:00:45 69° E 17:04:19 10° NNE
Cosmos 2016 Rocket 4.3 16:55:12 10° SSW 17:01:18 72° WNW 17:07:26 10° N
ERS-1 Rocket 4.0 16:59:44 12° ESE 17:03:45 30° ENE 17:08:05 10° N
USA 308 2.5 17:04:27 10° SW 17:05:01 12° SSW 17:05:01 12° SSW
TSX-5 3.5 17:01:56 10° NW 17:05:07 63° WSW 17:08:13 10° SSE
CZ-4B R/B 3.6 17:03:13 10° S 17:06:56 52° W 17:10:51 10° NNW
ATLAS 2AS CENTAUR R/B 3.3 17:00:09 10° WSW 17:07:21 65° NNW 17:14:17 10° NE
Genesis I 2.8 17:06:03 10° SW 17:09:30 81° SE 17:13:02 10° NE
SPOT 5 3.2 17:06:02 11° SE 17:10:20 44° ENE 17:14:37 10° N
CARTOSAT-1 3.8 17:06:59 10° S 17:11:14 72° WSW 17:15:30 10° NNW
USA 290 2.4 17:08:40 10° NNW 17:11:55 56° ENE 17:14:16 17° SE
MOS 1-B 4.4 17:10:27 10° SSE 17:16:16 88° WSW 17:22:06 10° NNW
Cosmos 2360 Rocket 2.6 17:12:45 10° SW 17:18:23 69° NW 17:24:03 10° NNE
Okean 3 Rocket 4.1 17:15:07 10° SSE 17:19:16 38° E 17:23:23 10° NNE
Okean O Rocket 1.6 17:17:54 10° SSE 17:22:20 89° E 17:26:49 10° NNW
NOSS 2-1 (E) 3.8 17:22:49 10° WNW 17:26:21 56° SW 17:30:05 15° SSE
Resurs 01 Rocket 2.4 17:22:33 10° S 17:26:53 53° W 17:31:15 10° NNW
Cosmos 2237 Rocket 3.3 17:23:14 11° SSE 17:27:10 23° ESE 17:31:27 10° NE
Cosmos 2322 Rocket 3.1 17:21:46 10° SW 17:27:21 53° NW 17:32:58 10° NNE
ACS3 Solar Sail 1.9 17:21:09 10° SSE 17:27:33 82° ENE 17:33:59 10° NNW
Cosmos 1340 3.3 17:26:05 10° SSW 17:29:17 50° WNW 17:32:30 10° N
IKONOS-2 4.5 17:25:24 10° NNE 17:29:32 58° ESE 17:33:37 10° S
USA 186 3.5 17:27:50 10° SSW 17:30:48 34° W 17:33:48 10° NNW
Helios 1A 3.8 17:27:07 10° N 17:31:05 52° WNW 17:35:01 10° SW
MOS 1 Rocket 3.8 17:27:39 16° SE 17:31:25 52° ENE 17:36:30 10° N
Cosmos 1814 Rocket 4.1 17:27:45 10° S 17:32:52 51° ESE 17:37:58 10° NE
Cosmos 2333 Rocket 2.9 17:29:24 10° SW 17:35:07 60° NW 17:40:51 10° NNE
NOSS 2-1 (D) 4.1 17:32:56 10° WNW 17:36:24 46° SW 17:39:51 16° SSE
Cosmos 1515 Rocket 3.4 17:32:29 10° N 17:36:51 80° E 17:40:28 15° SSE
Cosmos 2344 4.4 17:31:02 10° W 17:38:02 48° N 17:46:11 10° ENE
Okean-O 2.5 17:34:45 15° SSE 17:38:24 79° ENE 17:42:50 10° NNW
Cosmos 2219 Rocket 2.3 17:33:35 10° SW 17:39:17 82° NW 17:45:01 10° NNE
BlueWalker 3 3.0 17:36:07 10° W 17:39:29 32° SSW 17:41:17 21° SSE
MetOp-B 4.1 17:36:23 15° SSE 17:40:53 74° ENE 17:46:15 10° NNW
CSL-04 Rocket 4.4 17:37:49 10° S 17:43:04 53° W 17:48:18 10° NNW
Sich 1 3.9 17:43:47 25° ESE 17:44:54 29° E 17:48:38 10° NNE
USA 245 3.7 17:45:40 21° NE 17:45:40 21° NE 17:47:07 10° N
Cosmos 1805 4.3 17:46:41 24° E 17:46:41 24° E 17:49:36 10° NE
USA 267 3.3 17:41:40 19° ESE 17:46:40 88° SSW 17:53:16 10° WNW
SL-16 R/B 4.0 17:42:39 10° WSW 17:47:45 33° NW 17:52:53 10° NNE
Cosmos 1842 4.0 17:46:28 10° NNW 17:49:58 46° W 17:53:26 10° S
Cosmos 2369 Rocket 3.3 17:49:37 10° NNW 17:54:47 33° NE 17:58:08 19° E
Cosmos 1980 4.2 17:50:24 10° S 17:55:33 37° ESE 18:00:43 10° NE
Meteor 1-13 Rocket 4.3 17:49:51 10° NNW 17:55:50 89° WSW 18:00:34 16° SSE
IRS-1C Rocket 4.1 17:52:38 22° SSE 17:56:05 71° ENE 18:01:22 10° NNW
DELTA 2 DEB (DPAF) 4.0 17:52:36 10° NNE 17:56:44 55° ESE 17:59:31 19° S
Cosmos 1766 Rocket 4.1 17:52:43 10° SSW 17:57:02 61° WNW 18:01:24 10° N
Cosmos 2298 Rocket 4.2 17:53:22 10° NNW 17:58:38 59° ENE 18:01:17 28° SE
Cosmos 1500 Rocket 3.9 17:57:22 30° SE 17:58:57 42° E 18:03:05 10° NNE
Cosmos 2322 3.6 17:54:11 10° SSW 17:59:50 86° ESE 18:05:33 10° NE
USA 32 4.0 17:54:50 10° N 18:00:05 67° E 18:03:12 24° SSE
Cosmos 1428 Rocket 4.4 17:56:34 10° N 18:02:43 78° ENE 18:06:58 21° SSE
SWARM A 4.4 18:00:33 20° S 18:02:51 83° W 18:06:24 10° N
Cosmos 1743 Rocket 4.1 18:02:36 33° ESE 18:03:20 35° E 18:07:17 10° NNE
Cosmos 2150 Rocket 4.1 17:58:42 10° NNW 18:03:52 63° ENE 18:06:16 31° SE
Spot 2 Rocket 3.6 18:01:44 29° SE 18:04:13 60° ENE 18:09:11 10° N
In-Cosmos 22 4.4 18:01:08 10° NNW 18:06:53 73° W 18:11:29 16° S
NOSS 3-4 (A) 4.0 18:02:09 10° NW 18:08:25 58° NNE 18:13:10 22° E
NOSS 3-4 (C) 4.0 18:02:15 10° NW 18:08:31 58° NNE 18:13:16 22° E
Meteor 2-10 4.1 18:03:48 10° S 18:09:19 72° E 18:15:01 10° NNE
Cosmos 1315 Rocket 2.8 18:07:25 10° NNW 18:11:24 83° W 18:13:04 34° S
Cosmos 1707 4.1 18:08:28 10° NNW 18:11:41 32° W 18:14:39 11° SSW
USA 276 3.7 18:09:51 10° WSW 18:11:16 20° SW 18:11:16 20° SW
Cosmos 1570 Rocket 4.3 18:09:36 24° SSE 18:12:26 45° ESE 18:17:26 10° NE
CZ-4 R/B 4.3 18:12:44 10° WSW 18:14:26 13° W 18:16:09 10° WNW
Nadezhda 4 Rocket 4.2 18:09:18 10° NNW 18:15:31 70° W 18:21:01 14° S
Cosmos 2195 Rocket 4.4 18:09:23 10° N 18:15:34 84° E 18:19:24 24° SSE
Cosmos 1408 Rocket 3.4 18:13:30 25° S 18:16:02 75° E 18:20:27 10° NNE
Cosmos 1733 3.0 18:15:43 27° SSW 18:17:27 78° W 18:20:56 10° N
Cosmos 1092 Rocket 4.0 18:11:18 10° N 18:17:38 75° ENE 18:21:13 28° SSE
Meteor 1-23 Rocket 4.1 18:12:21 10° NNW 18:18:00 85° ENE 18:21:06 28° SSE
COSMOS 2428 2.7 18:13:08 10° SSW 18:18:52 87° WNW 18:24:39 10° NNE
Cosmos 1818 3.6 18:15:08 10° SW 18:20:37 83° NW 18:26:09 10° NE
Lacrosse 4 Rocket 4.0 18:18:20 10° WNW 18:21:00 16° WSW 18:23:38 10° SW
Cosmos 1943 Rocket 2.4 18:16:37 10° NW 18:22:04 63° WSW 18:24:57 28° S
Cosmos 1975 3.6 18:22:48 34° ENE 18:22:48 34° ENE 18:25:51 10° NNE
USA 59 Rocket 1.7 18:20:06 10° WNW 18:23:17 24° SW 18:25:31 17° SSW
Cosmos 1536 3.2 18:20:01 12° SSW 18:23:27 60° WNW 18:27:15 10° N
SL-16 R/B 3.8 18:25:29 18° E 18:25:29 18° E 18:27:55 10° NE
Cosmos 2026 Rocket 3.9 18:18:12 10° N 18:24:33 83° ENE 18:27:59 29° SSE
OPS 6432 4.1 18:24:01 10° NW 18:27:20 82° NE 18:27:20 82° NE
Cosmos 1464 Rocket 4.2 18:22:48 10° SSW 18:29:06 72° WNW 18:35:31 10° N
Okean 1-7 4.1 18:28:41 10° N 18:32:28 29° ENE 18:32:39 28° ENE
Terra 1.9 18:30:28 34° S 18:32:31 74° WSW 18:37:15 10° NNW
SL-14 R/B 3.1 18:29:26 10° NNW 18:33:14 80° W 18:33:54 58° S
Meteor 1-11 Rocket 3.7 18:27:38 10° SSW 18:33:18 83° WNW 18:38:54 10° NNE
CRYOSAT 2 4.4 18:29:17 10° N 18:34:13 83° W 18:36:55 27° SSW
Cosmos 158 Rocket 3.8 18:33:42 44° SSE 18:34:52 56° ESE 18:39:38 10° NNE
Cosmos 1634 Rocket 4.1 18:32:27 34° SSE 18:35:05 57° E 18:41:16 10° NNE
Cosmos 1125 Rocket 4.2 18:30:55 10° NW 18:35:55 49° WSW 18:38:31 26° SSW
Ariane Rocket 2.9 18:34:38 40° SSE 18:36:30 88° ENE 18:41:36 10° NNW
Cosmos 2278 Rocket 3.3 18:32:32 10° NW 18:37:41 37° WSW 18:41:07 19° SSW
SPOT 3 Rocket 3.4 18:36:39 41° SSE 18:38:33 88° ENE 18:43:44 10° NNW
Cosmos 1805 Rocket 3.4 18:37:26 48° S 18:38:37 82° E 18:42:58 10° NNE
ERS-1 Rocket 3.5 18:39:39 27° SSW 18:42:15 56° W 18:47:14 10° NNW
Meteor 2-9 Rocket 4.1 18:38:56 17° SSW 18:43:06 81° WNW 18:48:34 10° NNE
Cosmos 1862 Rocket 3.5 18:42:12 10° N 18:46:34 62° ENE 18:46:56 59° ESE
Cosmos 2034 Rocket 4.1 18:41:53 12° SSW 18:47:49 75° WNW 18:54:02 10° N
Okean 3 3.5 18:44:06 10° N 18:48:12 59° ENE 18:48:15 59° ENE
SPOT 5 4.3 18:45:11 15° SSW 18:48:28 31° W 18:52:33 10° NNW
Celestis-02/Orion 38 4.4 18:45:47 10° NE 18:50:56 66° ESE 18:52:45 39° S
Cosmos 1707 Rocket 3.4 18:47:24 10° N 18:51:53 78° ENE 18:52:21 68° SE
USA 215 3.4 18:46:01 10° ENE 18:52:16 45° SE 18:58:30 10° SSW
Cosmos 1633 Rocket 4.0 18:53:17 33° ENE 18:53:17 33° ENE 18:56:28 10° NNE
Cosmos 2208 Rocket 3.9 18:55:25 44° S 18:57:02 73° ESE 19:02:23 10° NNE
NOSS 0 Rocket 4.0 18:51:13 10° SW 18:57:28 81° NW 19:03:46 10° NE
MetOp-A 3.8 18:58:35 55° E 18:58:53 57° ENE 19:03:31 10° N
Okean O Rocket 4.3 18:56:41 10° WSW 18:59:15 15° W 19:01:49 10° NW
ATLAS 2AS CENTAUR R/B 3.8 18:52:39 10° WNW 18:59:21 42° N 19:05:49 10° ENE
Cosmos 1666 Rocket 4.0 19:00:46 46° ENE 19:00:46 46° ENE 19:04:23 10° NNE
Landsat 4 4.5 19:01:44 40° NNE 19:01:44 40° NNE 19:04:11 10° N
Meteor 1-21 4.5 18:57:33 10° NNW 19:03:14 67° W 19:05:22 39° SSW
Cosmos 2360 Rocket 4.5 18:58:50 10° W 19:03:24 24° NNW 19:07:58 10° NNE
Cosmos 1656 Rocket 3.6 18:58:00 10° NNW 19:03:44 86° ENE 19:05:00 56° SE
Cosmos 773 Rocket 4.2 19:06:05 52° E 19:06:05 52° E 19:10:58 10° NE
Cosmos 2228 Rocket 3.2 19:04:01 10° NNW 19:08:34 73° W 19:09:07 64° SSW
Aureole 3 Rocket 4.3 19:02:24 10° SSW 19:09:35 62° WNW 19:14:44 10° N
Cosmos 2237 Rocket 2.2 19:04:57 10° SW 19:10:36 83° NW 19:16:17 10° NNE
Cosmos 2297 3.6 19:05:08 10° NNW 19:10:49 87° ENE 19:11:54 60° SE
ACS3 Solar Sail 3.8 19:07:14 10° SW 19:12:22 25° W 19:17:32 10° NNW
Cosmos 1441 Rocket 4.3 19:13:49 35° NNE 19:13:49 35° NNE 19:16:02 10° NNE
ARIANE 5 R/B 3.3 19:19:16 42° NE 19:19:16 42° NE 19:23:02 10° N
Cosmos 1805 4.4 19:21:00 34° W 19:21:30 35° WNW 19:24:56 10° N
NOSS 3-3 (C) 4.0 19:22:06 53° ESE 19:22:06 53° ESE 19:27:56 10° NE
Sich 1 4.2 19:20:26 27° WSW 19:22:11 39° WNW 19:26:16 10° N
CZ-4C R/B 4.2 19:19:33 10° N 19:23:10 45° WNW 19:23:38 43° W
Cosmos 2279 Rocket 3.9 19:22:18 53° S 19:23:55 81° E 19:30:11 10° NNE
Cosmos 2219 Rocket 4.3 19:19:16 10° W 19:24:04 27° NNW 19:28:53 10° NNE
USA 267 3.6 19:29:00 43° S 19:30:06 47° SW 19:36:24 10° WNW
NOSS 3-3 (A) 3.7 19:38:25 69° SSE 19:38:39 70° SE 19:45:15 10° NE
Cosmos 2369 Rocket 2.1 19:33:37 10° NW 19:39:22 76° WSW 19:39:53 70° SSW
Cosmos 1980 4.3 19:33:52 10° SW 19:39:27 56° NW 19:45:05 10° NNE
Okean 2 4.1 19:38:30 10° NNW 19:41:41 49° NW 19:41:41 49° NW
SL-08 ROCKET BODY 4.3 19:42:43 10° NNW 19:48:57 83° W 19:49:52 66° S
Cosmos 192 4.4 19:44:18 10° NNW 19:48:53 72° WNW 19:48:53 72° WNW
Cosmos 2344 4.1 19:46:21 10° NW 19:53:52 61° NNE 20:00:25 21° E
ATLAS CENTAUR R/B 4.0 20:01:59 11° NE 20:01:59 11° NE 20:02:06 10° NE
NOSS 3-4 (A) 3.9 19:53:00 10° NW 19:59:33 62° SW 20:00:35 56° SSW
NOSS 3-4 (C) 3.8 19:53:06 10° NW 19:59:39 62° SW 20:00:41 56° SSW
Cosmos 1607 4.0 20:00:25 61° ESE 20:00:25 61° ESE 20:06:13 10° NE
Cosmos 1943 Rocket 4.4 20:02:19 10° WNW 20:04:43 13° W 20:06:27 11° WSW
SL-16 R/B 2.1 20:07:18 87° E 20:07:18 87° E 20:12:57 10° NE
ASTEX 1 3.6 20:09:36 67° NNE 20:09:36 67° NNE 20:13:53 10° N
Okean 1-7 4.2 20:05:47 10° NNW 20:09:11 38° WNW 20:09:11 38° WNW
Cosmos 2266 Rocket 4.2 20:03:55 10° NNW 20:10:02 62° W 20:10:56 56° SW
Meteor 2-5 Rocket 3.9 20:04:37 10° N 20:10:34 66° ENE 20:10:47 66° E
Terra 4.3 20:09:10 11° WSW 20:10:57 13° W 20:13:06 10° WNW
Cosmos 2056 Rocket 4.1 20:10:04 10° NNW 20:15:06 46° NE 20:15:12 46° ENE
Cosmos 2263 4.5 20:10:04 10° NW 20:15:30 57° WSW 20:15:30 57° WSW
ALOS 2 3.5 20:25:26 47° N 20:25:26 47° N 20:28:41 10° N
Cosmos 1633 Rocket 4.5 20:30:16 32° WNW 20:30:16 32° WNW 20:34:10 10° N
Cosmos 1655 Rocket 4.1 20:24:11 10° NNW 20:30:29 66° W 20:31:03 63° WSW
Meteor 1-24 Rocket 3.7 20:26:35 10° NNW 20:32:38 89° NNE 20:32:38 89° NNE
H-2A R/B 3.7 20:34:25 41° N 20:34:25 41° N 20:37:14 10° NNW
Cosmos 1943 3.9 20:34:42 43° ENE 20:34:42 43° ENE 20:38:46 10° NE
Nadezhda 2 Rocket 4.4 20:29:04 10° N 20:35:28 75° ENE 20:35:46 73° ESE
USA 215 3.1 20:29:10 10° ENE 20:35:45 87° SSE 20:42:20 10° WSW
Cosmos 1244 Rocket 4.3 20:37:23 10° N 20:43:36 87° E 20:43:41 86° ESE
Cosmos 1553 Rocket 4.3 20:45:06 54° E 20:45:06 54° E 20:51:02 10° NNE
Cosmos 1538 Rocket 4.4 20:49:11 62° NE 20:49:11 62° NE 20:53:39 10° NNE
Cosmos 1697 Rocket 4.1 20:44:21 10° NNW 20:49:26 32° NE 20:51:36 25° ENE
Cosmos 1420 Rocket 4.3 20:44:27 10° NNW 20:48:48 63° NNW 20:48:48 63° NNW
ATLAS 2AS CENTAUR R/B 3.4 20:44:45 10° NW 20:51:34 51° NNE 20:56:21 19° E
Meteor 2-10 Rocket 3.8 20:54:31 64° NNE 20:54:31 64° NNE 20:59:07 10° NNE
ARIANE 5 R/B 4.4 20:56:43 25° WNW 20:56:43 25° WNW 20:59:18 10° NNW
Cosmos 2237 Rocket 4.1 20:50:42 10° W 20:55:28 27° NNW 21:00:15 10° NNE
Cosmos 1656 3.9 20:54:25 10° NNW 21:00:06 62° NE 21:00:10 62° NE
Cosmos 724 4.4 21:11:48 64° WNW 21:12:14 66° NW 21:18:03 10° NE
NOSS 3-3 (C) 4.5 21:09:29 29° W 21:12:32 57° NNW 21:19:29 10° NE
Cosmos 1680 Rocket 4.4 21:14:38 41° ENE 21:14:38 41° ENE 21:18:24 10° NE
Cosmos 2369 Rocket 4.2 21:18:55 10° WNW 21:21:39 17° W 21:21:39 17° W
Meteor 1-12 Rocket 4.3 21:26:29 73° NNW 21:26:29 73° NNW 21:31:44 10° NNE
Cosmos 1953 4.4 21:30:32 25° NNE 21:30:32 25° NNE 21:32:18 10° NNE
H-2A R/B 3.8 21:26:14 10° NNE 21:28:45 27° ENE 21:28:45 27° ENE
ATLAS CENTAUR R/B 3.4 21:36:42 25° N 21:36:42 25° N 21:39:31 10° NE
S3M 4.0 21:37:10 67° E 21:37:10 67° E 21:43:12 10° NNE
SL-19 R/B 4.3 21:37:22 10° NNE 21:42:36 77° NE 21:42:36 77° NE
RESURS DK-1 4.3 21:40:24 10° NNW 21:42:14 25° NNW 21:42:14 25° NNW
Cosmos 1745 Rocket 4.0 21:38:22 10° NNW 21:44:30 72° W 21:44:30 72° W
Cosmos 1980 Rocket 3.4 21:42:16 10° NNW 21:47:31 38° NE 21:50:14 24° E
SL-16 R/B 3.8 21:49:08 19° W 21:52:03 29° NW 21:57:01 10° NNE
Cosmos 1452 Rocket 3.8 21:48:12 10° NNW 21:52:48 65° N 21:52:48 65° N
Cosmos 2112 Rocket 4.3 21:56:51 66° NNE 21:56:51 66° NNE 22:01:26 10° NNE
Cosmos 1331 Rocket 4.3 21:52:17 10° NNW 21:56:50 65° N 21:56:50 65° N
CZ-3B R/B 3.4 21:39:46 10° WNW 21:57:58 74° SSW 21:58:53 65° SSE
CZ-2C R/B 3.7 21:59:29 33° E 22:00:34 36° ENE 22:05:16 10° N
IDEFIX/ARIANE 42P 4.4 21:57:54 10° NE 22:01:42 20° E 22:02:12 20° E
Cosmos 2360 4.3 21:56:24 10° NW 22:01:27 69° NW 22:01:27 69° NW
Cosmos 1603 3.9 22:04:06 65° NW 22:04:07 65° NW 22:09:46 10° NNE
USA 281 4.0 22:01:01 19° ESE 22:05:30 48° NE 22:11:46 10° NNW
Cosmos 1417 Rocket 4.5 22:07:36 70° W 22:07:50 71° WNW 22:14:12 10° N
In-Cosmos 22 Rocket 4.2 22:02:46 10° NNW 22:08:00 77° NW 22:08:00 77° NW
Cosmos 2344 3.9 22:00:38 10° NW 22:08:33 61° SW 22:10:20 54° S
Cosmos 2315 Rocket 3.9 22:09:52 78° SE 22:10:05 79° E 22:16:18 10° NNE
Cosmos 1110 Rocket 4.5 22:06:06 10° NNW 22:10:07 54° NW 22:10:07 54° NW
Cosmos 883 Rocket 4.3 22:11:20 85° SE 22:11:27 86° E 22:17:37 10° NNE
Meteor 1-16 Rocket 4.4 22:14:29 58° NW 22:14:29 58° NW 22:19:18 10° N
Cosmos 1943 4.1 22:16:28 37° WNW 22:17:31 41° NW 22:22:52 10° NNE
USA 215 3.3 22:12:13 10° E 22:18:46 76° N 22:25:19 10° W
Cosmos 2154 Rocket 4.5 22:14:40 10° N 22:20:46 53° ENE 22:22:22 43° ESE
Cosmos 1908 Rocket 4.5 22:22:57 48° N 22:22:57 48° N 22:26:14 10° N
Cosmos 1833 Rocket 3.5 22:24:24 40° ESE 22:24:24 40° ESE 22:29:26 10° NE
ARIANE 6 FM1 Upper Stage 3.9 22:26:27 41° NE 22:26:27 41° NE 22:29:21 10° NE
Resurs 1-4 Rocket 3.8 22:24:15 10° NE 22:28:18 22° E 22:29:27 20° ESE
Cosmos 921 Rocket 3.9 22:34:26 49° NNE 22:34:26 49° NNE 22:37:42 10° NNE
Cosmos 1709 Rocket 4.4 22:27:49 10° NNW 22:33:49 49° W 22:33:49 49° W
Cosmos 1697 Rocket 2.8 22:28:17 10° NW 22:33:15 67° WNW 22:33:15 67° WNW
Cosmos 1782 Rocket 4.2 22:38:46 54° NNE 22:38:46 54° NNE 22:42:14 10° NNE
Cosmos 494 Rocket 4.0 22:39:31 77° N 22:39:31 77° N 22:44:25 10° NNE
ATLAS 2AS CENTAUR R/B 2.5 22:36:00 10° NW 22:42:53 74° SW 22:43:40 67° S
Cosmos 2322 Rocket 4.3 22:40:20 10° NNW 22:45:03 26° NNE 22:49:46 10° E
Cosmos 2074 Rocket 3.8 22:44:43 10° NNW 22:50:59 87° W 22:51:48 69° S
Cosmos 1992 Rocket 4.3 22:46:53 10° NNW 22:52:05 62° ENE 22:53:23 47° ESE
Cosmos 2369 4.0 22:47:16 10° NNW 22:52:58 66° NE 22:55:38 32° SE
COBE Rocket 4.1 22:48:41 10° N 22:52:58 59° NW 22:52:58 59° NW
Cosmos 2333 Rocket 4.4 22:48:40 10° NNW 22:53:25 25° NNE 22:58:07 10° E
Cosmos 1680 Rocket 4.5 22:54:53 35° WNW 22:55:32 37° NW 23:00:27 10° NNE
Cosmos 2082 Rocket 3.8 22:55:04 21° ESE 22:56:23 23° ESE 23:00:42 10° NE
Nimbus 7 Rocket 4.3 22:58:38 10° NNE 23:04:30 71° WNW 23:05:15 64° WSW
Cosmos 1953 4.5 23:05:32 18° NW 23:05:32 18° NW 23:07:27 10° NNW
CZ-2D R/B 3.2 22:59:47 10° NNE 23:04:54 38° E 23:06:27 32° SE
SL-16 R/B 3.6 23:00:27 10° NNW 23:05:46 38° NE 23:11:03 10° ESE
SL-16 R/B 3.4 22:59:55 10° SE 23:05:48 47° ENE 23:11:44 10° N
H-2A R/B 3.2 23:01:53 10° N 23:05:28 36° NW 23:05:28 36° NW
Cosmos 1271 Rocket 4.2 23:05:32 10° N 23:08:43 30° ENE 23:08:52 29° ENE
Cosmos 521 Rocket 4.4 23:07:22 10° NW 23:13:50 65° SW 23:14:50 58° S
Cosmos 468 4.4 23:13:38 78° SW 23:13:58 85° WNW 23:19:19 10° NNE
ATLAS CENTAUR R/B 3.8 23:11:47 10° NW 23:14:44 20° N 23:17:47 10° NE
CZ-4C R/B 3.6 23:15:18 21° SE 23:16:01 21° ESE 23:20:07 10° ENE
Lacrosse 5 3.9 23:18:50 16° SE 23:19:01 16° SE 23:22:01 10° E
SeaSat 1 3.7 23:14:44 10° ESE 23:19:19 41° NE 23:23:56 10° NNW
Geosat 4.0 23:20:14 10° NE 23:25:15 65° ESE 23:25:50 59° SSE
Cosmos 1375 Rocket 4.5 23:19:56 10° NW 23:26:33 87° NE 23:33:02 10° SE
Cosmos 2341 Rocket 4.3 23:20:33 10° N 23:26:46 63° ENE 23:30:56 21° SSE
ADEOS II 3.1 23:22:52 10° NNE 23:27:48 40° E 23:29:51 28° SE
Cosmos 2184 Rocket 4.1 23:22:11 10° NNW 23:28:15 54° W 23:29:04 50° WSW
Cosmos 1980 Rocket 2.1 23:26:18 10° NW 23:31:49 60° WSW 23:31:54 60° WSW
Cosmos 1818 4.5 23:29:05 10° NW 23:34:26 50° NNE 23:39:45 10° ESE
Helios 1A Rocket 4.5 23:37:35 23° NW 23:37:35 23° NW 23:39:18 10° NNW
Cosmos 2218 Rocket 4.5 23:29:40 10° N 23:36:00 60° ENE 23:41:36 13° SSE
Cosmos 2327 Rocket 4.3 23:31:59 10° NNW 23:38:10 82° W 23:40:19 43° S
Gbstr 26 Del rocket 4.2 23:37:52 45° S 23:38:45 48° SSE 23:44:13 10° E
CZ-2C R/B 2.9 23:40:58 46° W 23:40:58 46° W 23:45:46 10° NNW
IDEFIX/ARIANE 42P 2.5 23:36:35 10° NNE 23:41:52 84° WNW 23:42:56 58° SSW
Cosmos 2098 Rocket 3.2 23:46:28 48° NNE 23:46:28 48° NNE 23:49:05 10° NNE
ALOS 3.5 23:41:40 10° NNE 23:45:57 36° E 23:48:04 24° SE
Nadezhda 1 Rocket 3.9 23:46:12 46° SSW 23:48:09 79° WNW 23:54:26 10° N
Cosmos 1536 Rocket 3.9 23:44:30 10° NNW 23:48:26 51° WNW 23:48:26 51° WNW
USA 281 3.3 23:47:53 40° SSW 23:49:59 55° WSW 23:56:28 10° NW
Sich 1 Rocket 3.5 23:50:19 65° SSW 23:50:59 90° W 23:55:36 10° NNE
